Location: Arborea
(39.7744°N, 8.5819°E)
Time: 02:46:21
(UTC+00:00)

USA 229 - Pass Details

Date: 30 May 2022
Orbit: 938 x 1274 km, 63.4° (Epoch: 24 May)

Event Time Altitude Azimuth Distance (km) Brightness Sun altitude
Rises 23:54:57 0° 322° (NW) 4,019 7.3 -28.0°
Reaches altitude 10° 23:57:37 10° 320° (NW) 3,099 6.6 -28.0°
Maximum altitude 00:04:59 61° 242° (WSW) 1,377 4.0 -27.7°
Enters shadow 00:05:51 58° 213° (SSW) 1,421 3.9 -27.7°
